Time,TemperatureF,DewpointF,PressureIn,WindDirection,WindDirectionDegrees,WindSpeedMPH,WindSpeedGustMPH,Humidity,HourlyPrecipIn,Conditions,Clouds,dailyrainin,SoftwareType,DateUTC
2013-07-09 00:00:00,81.0,71.5,29.96,West,281,5.0,5.0,73,0.00,,,0.04,Wunderground v.1.15,2013-07-09 05:00:00,
2013-07-09 00:06:00,80.9,71.4,29.96,West,275,5.0,5.0,73,0.00,,,0.00,Wunderground v.1.15,2013-07-09 05:06:00,
2013-07-09 00:11:00,80.8,71.7,29.96,West,277,5.0,5.0,74,0.00,,,0.00,Wunderground v.1.15,2013-07-09 05:11:00,
2013-07-09 00:17:00,80.7,71.6,29.96,West,272,4.0,6.0,74,0.00,,,0.00,Wunderground v.1.15,2013-07-09 05:17:00,
2013-07-09 00:22:00,80.8,71.7,29.96,West,274,4.0,6.0,74,0.00,,,0.00,Wunderground v.1.15,2013-07-09 05:22:00,
2013-07-09 00:28:00,80.7,71.6,29.96,West,274,5.0,7.0,74,0.00,,,0.00,Wunderground v.1.15,2013-07-09 05:28:00,
2013-07-09 00:33:00,80.7,71.6,29.96,West,277,4.0,9.0,74,0.00,,,0.00,Wunderground v.1.15,2013-07-09 05:33:00,
2013-07-09 00:39:00,80.7,71.6,29.96,WNW,282,4.0,9.0,74,0.00,,,0.00,Wunderground v.1.15,2013-07-09 05:39:00,
2013-07-09 00:49:00,80.7,71.6,29.96,West,277,4.0,9.0,74,0.00,,,0.00,Wunderground v.1.15,2013-07-09 05:49:00,
2013-07-09 00:55:00,80.7,71.6,29.96,West,279,4.0,9.0,74,0.00,,,0.00,Wunderground v.1.15,2013-07-09 05:55:00,
2013-07-09 01:00:00,80.9,71.8,29.96,West,279,4.0,9.0,74,0.00,,,0.00,Wunderground v.1.15,2013-07-09 06:00:00,
2013-07-09 01:06:00,81.2,71.7,29.95,West,273,5.0,9.0,73,0.00,,,0.00,Wunderground v.1.15,2013-07-09 06:06:00,
2013-07-09 01:12:00,81.2,71.7,29.95,WNW,294,5.0,9.0,73,0.00,,,0.00,Wunderground v.1.15,2013-07-09 06:12:00,
2013-07-09 01:17:00,81.2,71.7,29.95,West,267,5.0,9.0,73,0.00,,,0.00,Wunderground v.1.15,2013-07-09 06:17:00,
2013-07-09 01:22:00,81.3,71.8,29.95,West,261,5.0,9.0,73,0.00,,,0.00,Wunderground v.1.15,2013-07-09 06:22:00,
2013-07-09 01:28:00,81.4,71.9,29.95,West,281,5.0,9.0,73,0.00,,,0.00,Wunderground v.1.15,2013-07-09 06:28:00,
2013-07-09 01:34:00,81.4,71.9,29.95,West,263,5.0,9.0,73,0.00,,,0.00,Wunderground v.1.15,2013-07-09 06:34:00,
2013-07-09 01:39:00,81.4,71.9,29.95,WNW,286,5.0,9.0,73,0.00,,,0.00,Wunderground v.1.15,2013-07-09 06:39:00,
2013-07-09 01:45:00,81.4,71.9,29.95,West,263,5.0,9.0,73,0.00,,,0.00,Wunderground v.1.15,2013-07-09 06:45:00,
2013-07-09 01:50:00,81.4,71.5,29.95,West,279,6.0,6.0,72,0.00,,,0.00,Wunderground v.1.15,2013-07-09 06:50:00,
2013-07-09 01:56:00,81.4,71.5,29.95,West,263,5.0,9.0,72,0.00,,,0.00,Wunderground v.1.15,2013-07-09 06:56:00,
2013-07-09 02:01:00,81.3,71.4,29.95,West,270,5.0,9.0,72,0.00,,,0.00,Wunderground v.1.15,2013-07-09 07:01:00,
2013-07-09 02:07:00,81.2,71.3,29.95,WSW,255,5.0,9.0,72,0.00,,,0.00,Wunderground v.1.15,2013-07-09 07:07:00,
2013-07-09 02:12:00,81.1,71.2,29.95,West,272,5.0,9.0,72,0.00,,,0.00,Wunderground v.1.15,2013-07-09 07:12:00,
2013-07-09 02:18:00,81.2,71.3,29.95,West,261,6.0,9.0,72,0.00,,,0.00,Wunderground v.1.15,2013-07-09 07:18:00,
2013-07-09 02:26:00,81.1,71.2,29.95,West,274,5.0,9.0,72,0.00,,,0.00,Wunderground v.1.15,2013-07-09 07:26:00,
2013-07-09 02:32:00,81.1,71.2,29.95,West,267,6.0,9.0,72,0.00,,,0.00,Wunderground v.1.15,2013-07-09 07:32:00,
2013-07-09 02:38:00,81.1,71.2,29.95,West,274,6.0,9.0,72,0.00,,,0.00,Wunderground v.1.15,2013-07-09 07:38:00,
2013-07-09 02:43:00,81.0,71.1,29.95,West,271,6.0,9.0,72,0.00,,,0.00,Wunderground v.1.15,2013-07-09 07:43:00,
2013-07-09 02:49:00,80.9,71.4,29.95,West,273,5.0,9.0,73,0.00,,,0.00,Wunderground v.1.15,2013-07-09 07:49:00,
2013-07-09 02:54:00,80.9,71.4,29.95,West,268,6.0,9.0,73,0.00,,,0.00,Wunderground v.1.15,2013-07-09 07:54:00,
2013-07-09 03:00:00,80.7,71.2,29.95,West,270,6.0,9.0,73,0.00,,,0.00,Wunderground v.1.15,2013-07-09 08:00:00,
2013-07-09 03:05:00,80.7,71.2,29.95,West,279,6.0,9.0,73,0.00,,,0.00,Wunderground v.1.15,2013-07-09 08:05:00,
2013-07-09 03:11:00,80.6,71.1,29.95,West,269,6.0,7.0,73,0.00,,,0.00,Wunderground v.1.15,2013-07-09 08:11:00,
2013-07-09 03:16:00,80.6,71.1,29.95,West,272,6.0,9.0,73,0.00,,,0.00,Wunderground v.1.15,2013-07-09 08:16:00,
2013-07-09 03:22:00,80.4,70.9,29.95,West,269,5.0,9.0,73,0.00,,,0.00,Wunderground v.1.15,2013-07-09 08:22:00,
2013-07-09 03:27:00,80.3,71.3,29.95,West,271,5.0,9.0,74,0.00,,,0.00,Wunderground v.1.15,2013-07-09 08:27:00,
2013-07-09 03:33:00,80.2,71.2,29.96,NW,310,4.0,9.0,74,0.00,,,0.00,Wunderground v.1.15,2013-07-09 08:33:00,
2013-07-09 03:38:00,79.7,71.5,29.96,West,263,5.0,9.0,76,0.00,,,0.01,Wunderground v.1.15,2013-07-09 08:38:00,
2013-07-09 03:44:00,78.6,71.5,29.95,West,266,6.0,9.0,79,0.00,,,0.01,Wunderground v.1.15,2013-07-09 08:44:00,
2013-07-09 03:49:00,78.0,71.3,29.95,West,261,5.0,9.0,80,0.00,,,0.01,Wunderground v.1.15,2013-07-09 08:49:00,
2013-07-09 03:55:00,77.7,71.4,29.95,West,261,4.0,9.0,81,0.00,,,0.01,Wunderground v.1.15,2013-07-09 08:55:00,
2013-07-09 04:01:00,77.4,71.5,29.95,West,261,4.0,9.0,82,0.00,,,0.01,Wunderground v.1.15,2013-07-09 09:01:00,
2013-07-09 04:06:00,77.4,71.5,29.95,WSW,257,4.0,9.0,82,0.00,,,0.01,Wunderground v.1.15,2013-07-09 09:06:00,
2013-07-09 04:12:00,77.4,71.5,29.95,WSW,256,5.0,9.0,82,0.00,,,0.01,Wunderground v.1.15,2013-07-09 09:12:00,
2013-07-09 04:18:00,77.5,71.2,29.95,WSW,256,4.0,9.0,81,0.00,,,0.01,Wunderground v.1.15,2013-07-09 09:18:00,
2013-07-09 04:23:00,77.7,71.4,29.95,West,264,4.0,9.0,81,0.00,,,0.01,Wunderground v.1.15,2013-07-09 09:23:00,
2013-07-09 04:29:00,77.7,71.0,29.94,West,264,4.0,9.0,80,0.00,,,0.01,Wunderground v.1.15,2013-07-09 09:29:00,
2013-07-09 04:34:00,77.8,71.1,29.94,West,270,5.0,9.0,80,0.00,,,0.01,Wunderground v.1.15,2013-07-09 09:34:00,
2013-07-09 04:40:00,78.0,71.0,29.94,West,261,5.0,9.0,79,0.00,,,0.01,Wunderground v.1.15,2013-07-09 09:40:00,
2013-07-09 04:45:00,78.0,71.0,29.94,West,266,5.0,9.0,79,0.00,,,0.01,Wunderground v.1.15,2013-07-09 09:45:00,
2013-07-09 04:51:00,78.2,70.8,29.94,West,263,5.0,9.0,78,0.00,,,0.01,Wunderground v.1.15,2013-07-09 09:51:00,
2013-07-09 04:56:00,78.1,71.1,29.94,West,264,5.0,9.0,79,0.00,,,0.01,Wunderground v.1.15,2013-07-09 09:56:00,
2013-07-09 05:10:00,77.9,70.5,29.94,West,262,4.0,9.0,78,0.00,,,0.01,Wunderground v.1.15,2013-07-09 10:10:00,
2013-07-09 05:20:00,77.9,70.5,29.94,West,259,5.0,9.0,78,0.00,,,0.01,Wunderground v.1.15,2013-07-09 10:20:00,
2013-07-09 05:29:00,77.6,70.6,29.94,West,260,4.0,9.0,79,0.00,,,0.01,Wunderground v.1.15,2013-07-09 10:29:00,
2013-07-09 05:34:00,77.6,70.6,29.94,West,260,4.0,9.0,79,0.00,,,0.01,Wunderground v.1.15,2013-07-09 10:34:00,
2013-07-09 05:40:00,77.6,70.6,29.95,West,270,4.0,9.0,79,0.00,,,0.01,Wunderground v.1.15,2013-07-09 10:40:00,
2013-07-09 05:45:00,77.6,70.6,29.94,West,269,4.0,9.0,79,0.00,,,0.01,Wunderground v.1.15,2013-07-09 10:45:00,
2013-07-09 05:51:00,77.6,70.6,29.95,WSW,254,4.0,9.0,79,0.00,,,0.01,Wunderground v.1.15,2013-07-09 10:51:00,
2013-07-09 05:56:00,77.6,70.6,29.95,WSW,254,3.0,9.0,79,0.00,,,0.01,Wunderground v.1.15,2013-07-09 10:56:00,
2013-07-09 06:02:00,77.6,70.9,29.95,WSW,254,3.0,9.0,80,0.00,,,0.01,Wunderground v.1.15,2013-07-09 11:02:00,
2013-07-09 06:07:00,77.6,70.6,29.95,WSW,254,3.0,9.0,79,0.00,,,0.01,Wunderground v.1.15,2013-07-09 11:07:00,
2013-07-09 06:13:00,77.5,70.8,29.96,WSW,254,3.0,9.0,80,0.00,,,0.01,Wunderground v.1.15,2013-07-09 11:13:00,
2013-07-09 06:19:00,77.4,70.7,29.96,WSW,254,2.0,9.0,80,0.00,,,0.01,Wunderground v.1.15,2013-07-09 11:19:00,
2013-07-09 06:24:00,77.5,70.8,29.96,WSW,254,2.0,9.0,80,0.00,,,0.01,Wunderground v.1.15,2013-07-09 11:24:00,
2013-07-09 06:29:00,77.4,71.1,29.96,WSW,254,2.0,9.0,81,0.00,,,0.01,Wunderground v.1.15,2013-07-09 11:29:00,
2013-07-09 06:35:00,77.4,71.1,29.96,WSW,254,1.0,9.0,81,0.00,,,0.01,Wunderground v.1.15,2013-07-09 11:35:00,
2013-07-09 06:40:00,77.3,71.0,29.96,WSW,254,1.0,1.0,81,0.00,,,0.01,Wunderground v.1.15,2013-07-09 11:40:00,
2013-07-09 06:46:00,77.3,71.4,29.97,WSW,254,0.0,9.0,82,0.00,,,0.01,Wunderground v.1.15,2013-07-09 11:46:00,
2013-07-09 06:51:00,77.2,71.3,29.97,WSW,254,1.0,9.0,82,0.00,,,0.01,Wunderground v.1.15,2013-07-09 11:51:00,
2013-07-09 06:57:00,77.3,71.0,29.97,WSW,254,1.0,9.0,81,0.00,,,0.01,Wunderground v.1.15,2013-07-09 11:57:00,
2013-07-09 07:03:00,77.3,71.4,29.97,WSW,254,1.0,9.0,82,0.00,,,0.01,Wunderground v.1.15,2013-07-09 12:03:00,
2013-07-09 07:08:00,77.2,71.3,29.97,WSW,254,1.0,9.0,82,0.00,,,0.01,Wunderground v.1.15,2013-07-09 12:08:00,
2013-07-09 07:14:00,77.1,71.5,29.97,WSW,254,1.0,9.0,83,0.00,,,0.01,Wunderground v.1.15,2013-07-09 12:14:00,
2013-07-09 07:19:00,77.2,71.6,29.97,WSW,254,1.0,9.0,83,0.00,,,0.01,Wunderground v.1.15,2013-07-09 12:19:00,
2013-07-09 07:25:00,77.2,71.6,29.97,WSW,256,2.0,9.0,83,0.00,,,0.01,Wunderground v.1.15,2013-07-09 12:25:00,
2013-07-09 07:30:00,77.4,71.5,29.97,West,279,4.0,9.0,82,0.00,,,0.01,Wunderground v.1.15,2013-07-09 12:30:00,
2013-07-09 07:36:00,77.3,71.7,29.97,West,266,4.0,9.0,83,0.00,,,0.02,Wunderground v.1.15,2013-07-09 12:36:00,
2013-07-09 07:41:00,77.2,72.0,29.97,West,267,3.0,9.0,84,0.00,,,0.02,Wunderground v.1.15,2013-07-09 12:41:00,
2013-07-09 07:47:00,77.2,72.0,29.97,West,267,2.0,9.0,84,0.00,,,0.02,Wunderground v.1.15,2013-07-09 12:47:00,
2013-07-09 07:52:00,77.2,72.0,29.98,West,267,2.0,9.0,84,0.00,,,0.02,Wunderground v.1.15,2013-07-09 12:52:00,
2013-07-09 07:58:00,77.2,72.0,29.98,West,267,3.0,9.0,84,0.00,,,0.02,Wunderground v.1.15,2013-07-09 12:58:00,
2013-07-09 08:03:00,77.3,72.1,29.98,WNW,286,4.0,9.0,84,0.00,,,0.02,Wunderground v.1.15,2013-07-09 13:03:00,
2013-07-09 08:09:00,77.4,71.8,29.98,West,269,6.0,9.0,83,0.00,,,0.02,Wunderground v.1.15,2013-07-09 13:09:00,
2013-07-09 08:15:00,77.4,71.8,29.99,West,281,6.0,9.0,83,0.00,,,0.02,Wunderground v.1.15,2013-07-09 13:15:00,
2013-07-09 08:34:00,77.8,72.2,29.98,West,270,4.0,9.0,83,0.00,,,0.02,Wunderground v.1.15,2013-07-09 13:34:00,
2013-07-09 08:42:00,77.9,72.0,29.98,West,265,5.0,9.0,82,0.00,,,0.02,Wunderground v.1.15,2013-07-09 13:42:00,
2013-07-09 08:48:00,78.2,72.3,29.98,West,273,5.0,9.0,82,0.00,,,0.02,Wunderground v.1.15,2013-07-09 13:48:00,
2013-07-09 08:54:00,78.5,72.2,29.97,West,261,5.0,9.0,81,0.00,,,0.02,Wunderground v.1.15,2013-07-09 13:54:00,
2013-07-09 09:00:00,79.2,72.9,29.97,West,265,5.0,5.0,81,0.00,,,0.02,Wunderground v.1.15,2013-07-09 14:00:00,
2013-07-09 09:05:00,79.6,73.3,29.97,West,268,5.0,9.0,81,0.00,,,0.02,Wunderground v.1.15,2013-07-09 14:05:00,
2013-07-09 09:11:00,80.0,72.9,29.97,WNW,292,6.0,9.0,79,0.00,,,0.02,Wunderground v.1.15,2013-07-09 14:11:00,
2013-07-09 09:17:00,80.5,73.4,29.97,WNW,294,6.0,9.0,79,0.00,,,0.02,Wunderground v.1.15,2013-07-09 14:17:00,
2013-07-09 09:22:00,80.9,73.4,29.98,WNW,292,7.0,9.0,78,0.00,,,0.02,Wunderground v.1.15,2013-07-09 14:22:00,
2013-07-09 09:28:00,81.3,73.4,29.97,WNW,296,7.0,9.0,77,0.00,,,0.02,Wunderground v.1.15,2013-07-09 14:28:00,
2013-07-09 09:33:00,81.8,73.9,29.97,WNW,284,7.0,10.0,77,0.00,,,0.02,Wunderground v.1.15,2013-07-09 14:33:00,
2013-07-09 09:39:00,82.2,73.5,29.97,West,269,7.0,11.0,75,0.00,,,0.02,Wunderground v.1.15,2013-07-09 14:39:00,
2013-07-09 09:44:00,82.4,73.7,29.96,West,270,7.0,9.0,75,0.00,,,0.02,Wunderground v.1.15,2013-07-09 14:44:00,
2013-07-09 09:50:00,82.9,74.2,29.96,WNW,289,8.0,9.0,75,0.00,,,0.02,Wunderground v.1.15,2013-07-09 14:50:00,
2013-07-09 09:55:00,83.3,74.1,29.96,WNW,287,9.0,11.0,74,0.00,,,0.02,Wunderground v.1.15,2013-07-09 14:55:00,
2013-07-09 10:04:00,84.0,74.4,29.96,West,274,9.0,14.0,73,0.00,,,0.02,Wunderground v.1.15,2013-07-09 15:04:00,
2013-07-09 10:10:00,84.3,74.3,29.96,WNW,284,9.0,9.0,72,0.00,,,0.02,Wunderground v.1.15,2013-07-09 15:10:00,
2013-07-09 10:15:00,84.3,74.3,29.95,West,279,9.0,9.0,72,0.00,,,0.02,Wunderground v.1.15,2013-07-09 15:15:00,
2013-07-09 10:21:00,84.9,75.3,29.95,WNW,286,8.0,9.0,73,0.00,,,0.02,Wunderground v.1.15,2013-07-09 15:21:00,
2013-07-09 10:26:00,85.5,75.0,29.96,WNW,284,8.0,9.0,71,0.00,,,0.02,Wunderground v.1.15,2013-07-09 15:26:00,
2013-07-09 10:32:00,85.8,74.4,29.95,West,260,9.0,12.0,69,0.00,,,0.02,Wunderground v.1.15,2013-07-09 15:32:00,
2013-07-09 10:37:00,85.5,74.6,29.95,WNW,282,9.0,12.0,70,0.00,,,0.02,Wunderground v.1.15,2013-07-09 15:37:00,
2013-07-09 10:43:00,85.5,75.0,29.96,West,269,8.0,12.0,71,0.00,,,0.02,Wunderground v.1.15,2013-07-09 15:43:00,
2013-07-09 10:49:00,85.5,74.6,29.96,West,279,9.0,12.0,70,0.00,,,0.02,Wunderground v.1.15,2013-07-09 15:49:00,
2013-07-09 10:54:00,85.2,74.3,29.96,WNW,298,8.0,10.0,70,0.00,,,0.02,Wunderground v.1.15,2013-07-09 15:54:00,
2013-07-09 11:00:00,85.0,74.5,29.96,West,271,9.0,9.0,71,0.00,,,0.02,Wunderground v.1.15,2013-07-09 16:00:00,
2013-07-09 11:05:00,85.1,75.1,29.96,West,280,9.0,9.0,72,0.00,,,0.02,Wunderground v.1.15,2013-07-09 16:05:00,
2013-07-09 11:11:00,85.1,74.6,29.96,WNW,284,8.0,9.0,71,0.00,,,0.02,Wunderground v.1.15,2013-07-09 16:11:00,
2013-07-09 11:16:00,85.3,75.2,29.96,West,280,8.0,9.0,72,0.00,,,0.02,Wunderground v.1.15,2013-07-09 16:16:00,
2013-07-09 11:22:00,85.4,74.9,29.96,West,277,7.0,11.0,71,0.00,,,0.02,Wunderground v.1.15,2013-07-09 16:22:00,
2013-07-09 11:27:00,85.5,74.6,29.96,WSW,258,8.0,11.0,70,0.00,,,0.02,Wunderground v.1.15,2013-07-09 16:27:00,
2013-07-09 11:33:00,85.5,75.0,29.96,WNW,295,8.0,9.0,71,0.00,,,0.02,Wunderground v.1.15,2013-07-09 16:33:00,
2013-07-09 11:38:00,85.4,75.3,29.96,West,281,8.0,9.0,72,0.00,,,0.02,Wunderground v.1.15,2013-07-09 16:38:00,
2013-07-09 11:44:00,85.2,74.7,29.96,WNW,294,8.0,9.0,71,0.00,,,0.02,Wunderground v.1.15,2013-07-09 16:44:00,
2013-07-09 11:50:00,85.1,75.1,29.97,NW,309,8.0,8.0,72,0.00,,,0.02,Wunderground v.1.15,2013-07-09 16:50:00,
2013-07-09 11:56:00,85.0,75.4,29.96,West,279,7.0,9.0,73,0.00,,,0.02,Wunderground v.1.15,2013-07-09 16:56:00,
2013-07-09 12:02:00,84.8,75.2,29.96,West,275,6.0,9.0,73,0.00,,,0.02,Wunderground v.1.15,2013-07-09 17:02:00,
2013-07-09 12:07:00,84.7,75.1,29.96,WNW,288,7.0,9.0,73,0.00,,,0.02,Wunderground v.1.15,2013-07-09 17:07:00,
2013-07-09 12:13:00,84.8,75.2,29.96,WNW,288,6.0,9.0,73,0.00,,,0.02,Wunderground v.1.15,2013-07-09 17:13:00,
2013-07-09 12:18:00,85.0,75.4,29.96,West,273,5.0,9.0,73,0.00,,,0.02,Wunderground v.1.15,2013-07-09 17:18:00,
2013-07-09 12:24:00,85.2,75.6,29.96,West,275,5.0,9.0,73,0.00,,,0.02,Wunderground v.1.15,2013-07-09 17:24:00,
2013-07-09 12:29:00,85.5,76.3,29.96,West,263,4.0,9.0,74,0.00,,,0.02,Wunderground v.1.15,2013-07-09 17:29:00,
2013-07-09 12:35:00,85.9,76.6,29.96,WNW,287,4.0,9.0,74,0.00,,,0.02,Wunderground v.1.15,2013-07-09 17:35:00,
2013-07-09 12:40:00,86.2,76.1,29.95,West,269,4.0,9.0,72,0.00,,,0.02,Wunderground v.1.15,2013-07-09 17:40:00,
2013-07-09 12:46:00,86.5,75.5,29.95,WNW,302,5.0,9.0,70,0.00,,,0.02,Wunderground v.1.15,2013-07-09 17:46:00,
2013-07-09 12:52:00,86.8,75.8,29.95,West,274,7.0,9.0,70,0.00,,,0.02,Wunderground v.1.15,2013-07-09 17:52:00,
2013-07-09 12:57:00,86.8,76.3,29.95,WNW,294,7.0,9.0,71,0.00,,,0.02,Wunderground v.1.15,2013-07-09 17:57:00,
2013-07-09 13:03:00,86.7,76.2,29.95,WNW,296,6.0,9.0,71,0.00,,,0.02,Wunderground v.1.15,2013-07-09 18:03:00,
2013-07-09 13:08:00,86.6,75.6,29.95,WNW,292,6.0,9.0,70,0.00,,,0.02,Wunderground v.1.15,2013-07-09 18:08:00,
2013-07-09 13:14:00,86.6,76.1,29.95,West,266,6.0,9.0,71,0.00,,,0.02,Wunderground v.1.15,2013-07-09 18:14:00,
2013-07-09 13:19:00,86.4,75.9,29.94,West,267,5.0,9.0,71,0.00,,,0.02,Wunderground v.1.15,2013-07-09 18:19:00,
2013-07-09 13:25:00,86.7,77.0,29.94,West,271,6.0,9.0,73,0.00,,,0.02,Wunderground v.1.15,2013-07-09 18:25:00,
2013-07-09 13:30:00,87.5,77.4,29.93,WSW,254,6.0,9.0,72,0.00,,,0.02,Wunderground v.1.15,2013-07-09 18:30:00,
2013-07-09 13:36:00,87.6,77.0,29.92,West,277,6.0,9.0,71,0.00,,,0.02,Wunderground v.1.15,2013-07-09 18:36:00,
2013-07-09 13:42:00,87.7,76.3,29.92,West,266,6.0,9.0,69,0.00,,,0.02,Wunderground v.1.15,2013-07-09 18:42:00,
2013-07-09 13:48:00,87.6,77.0,29.91,West,274,7.0,9.0,71,0.00,,,0.02,Wunderground v.1.15,2013-07-09 18:48:00,
2013-07-09 13:54:00,87.9,76.5,29.91,West,267,7.0,9.0,69,0.00,,,0.02,Wunderground v.1.15,2013-07-09 18:54:00,
2013-07-09 13:59:00,88.7,76.8,29.92,West,270,7.0,11.0,68,0.00,,,0.02,Wunderground v.1.15,2013-07-09 18:59:00,
2013-07-09 14:05:00,89.7,77.3,29.92,WNW,300,7.0,10.0,67,0.00,,,0.02,Wunderground v.1.15,2013-07-09 19:05:00,
2013-07-09 14:10:00,90.0,77.6,29.92,WNW,288,8.0,9.0,67,0.00,,,0.02,Wunderground v.1.15,2013-07-09 19:10:00,
2013-07-09 14:16:00,90.0,76.2,29.91,West,271,9.0,10.0,64,0.00,,,0.02,Wunderground v.1.15,2013-07-09 19:16:00,
2013-07-09 14:22:00,90.4,76.6,29.91,West,277,9.0,13.0,64,0.00,,,0.02,Wunderground v.1.15,2013-07-09 19:22:00,
2013-07-09 14:28:00,90.4,76.6,29.91,West,268,9.0,13.0,64,0.00,,,0.02,Wunderground v.1.15,2013-07-09 19:28:00,
2013-07-09 14:34:00,90.6,75.8,29.91,WSW,258,10.0,16.0,62,0.00,,,0.02,Wunderground v.1.15,2013-07-09 19:34:00,
2013-07-09 14:40:00,91.2,75.4,29.90,WNW,291,11.0,11.0,60,0.00,,,0.02,Wunderground v.1.15,2013-07-09 19:40:00,
2013-07-09 14:46:00,91.5,75.1,29.90,West,281,10.0,13.0,59,0.00,,,0.02,Wunderground v.1.15,2013-07-09 19:46:00,
2013-07-09 14:52:00,91.7,74.8,29.90,West,276,10.0,13.0,58,0.00,,,0.02,Wunderground v.1.15,2013-07-09 19:52:00,
2013-07-09 14:57:00,91.6,74.7,29.90,West,271,10.0,16.0,58,0.00,,,0.02,Wunderground v.1.15,2013-07-09 19:57:00,
2013-07-09 15:03:00,91.7,74.8,29.90,West,275,11.0,13.0,58,0.00,,,0.02,Wunderground v.1.15,2013-07-09 20:03:00,
2013-07-09 15:08:00,92.0,74.6,29.90,WNW,289,11.0,14.0,57,0.00,,,0.02,Wunderground v.1.15,2013-07-09 20:08:00,
2013-07-09 15:14:00,91.9,75.5,29.90,WNW,298,11.0,14.0,59,0.00,,,0.02,Wunderground v.1.15,2013-07-09 20:14:00,
2013-07-09 15:19:00,92.2,75.3,29.89,West,277,10.0,14.0,58,0.00,,,0.02,Wunderground v.1.15,2013-07-09 20:19:00,
2013-07-09 15:25:00,92.1,76.2,29.89,WNW,294,9.0,11.0,60,0.00,,,0.02,Wunderground v.1.15,2013-07-09 20:25:00,
2013-07-09 15:30:00,92.3,74.3,29.89,West,280,10.0,10.0,56,0.00,,,0.02,Wunderground v.1.15,2013-07-09 20:30:00,
2013-07-09 15:41:00,92.4,73.9,29.88,West,268,11.0,11.0,55,0.00,,,0.02,Wunderground v.1.15,2013-07-09 20:41:00,
2013-07-09 15:47:00,92.5,74.5,29.88,West,272,11.0,16.0,56,0.00,,,0.02,Wunderground v.1.15,2013-07-09 20:47:00,
2013-07-09 15:52:00,92.6,74.1,29.88,West,277,12.0,13.0,55,0.00,,,0.02,Wunderground v.1.15,2013-07-09 20:52:00,
2013-07-09 15:58:00,92.3,74.3,29.88,WNW,286,12.0,13.0,56,0.00,,,0.02,Wunderground v.1.15,2013-07-09 20:58:00,
2013-07-09 16:03:00,92.4,74.4,29.88,WNW,292,11.0,13.0,56,0.00,,,0.02,Wunderground v.1.15,2013-07-09 21:03:00,
2013-07-09 16:09:00,92.7,74.2,29.88,WNW,296,10.0,13.0,55,0.00,,,0.02,Wunderground v.1.15,2013-07-09 21:09:00,
2013-07-09 16:14:00,92.9,74.9,29.88,West,275,8.0,9.0,56,0.00,,,0.02,Wunderground v.1.15,2013-07-09 21:14:00,
2013-07-09 16:20:00,92.8,74.3,29.88,West,263,10.0,10.0,55,0.00,,,0.02,Wunderground v.1.15,2013-07-09 21:20:00,
2013-07-09 16:25:00,92.8,74.3,29.88,West,280,11.0,11.0,55,0.00,,,0.02,Wunderground v.1.15,2013-07-09 21:25:00,
2013-07-09 16:31:00,92.8,74.3,29.88,West,273,10.0,11.0,55,0.00,,,0.02,Wunderground v.1.15,2013-07-09 21:31:00,
2013-07-09 16:36:00,92.6,74.1,29.88,West,275,10.0,14.0,55,0.00,,,0.02,Wunderground v.1.15,2013-07-09 21:36:00,
2013-07-09 16:42:00,92.3,74.3,29.87,West,273,9.0,9.0,56,0.00,,,0.02,Wunderground v.1.15,2013-07-09 21:42:00,
2013-07-09 16:47:00,92.2,74.2,29.87,WNW,283,8.0,10.0,56,0.00,,,0.02,Wunderground v.1.15,2013-07-09 21:47:00,
2013-07-09 16:53:00,92.5,74.0,29.87,WSW,250,9.0,11.0,55,0.00,,,0.02,Wunderground v.1.15,2013-07-09 21:53:00,
2013-07-09 16:59:00,92.4,74.4,29.87,West,264,9.0,11.0,56,0.00,,,0.02,Wunderground v.1.15,2013-07-09 21:59:00,
2013-07-09 17:05:00,92.8,75.3,29.86,West,279,8.0,9.0,57,0.00,,,0.02,Wunderground v.1.15,2013-07-09 22:05:00,
2013-07-09 17:11:00,92.9,74.4,29.86,WNW,302,9.0,15.0,55,0.00,,,0.02,Wunderground v.1.15,2013-07-09 22:11:00,
2013-07-09 17:16:00,93.0,74.4,29.86,West,263,10.0,15.0,55,0.00,,,0.02,Wunderground v.1.15,2013-07-09 22:16:00,
2013-07-09 17:22:00,92.9,73.8,29.86,WNW,289,11.0,13.0,54,0.00,,,0.02,Wunderground v.1.15,2013-07-09 22:22:00,
2013-07-09 17:27:00,93.0,74.4,29.86,West,275,11.0,15.0,55,0.00,,,0.02,Wunderground v.1.15,2013-07-09 22:27:00,
2013-07-09 17:39:00,93.0,73.9,29.86,WNW,283,11.0,14.0,54,0.00,,,0.02,Wunderground v.1.15,2013-07-09 22:39:00,
2013-07-09 17:49:00,92.8,74.3,29.86,West,274,9.0,11.0,55,0.00,,,0.02,Wunderground v.1.15,2013-07-09 22:49:00,
2013-07-09 17:55:00,92.7,73.6,29.86,West,279,8.0,10.0,54,0.00,,,0.02,Wunderground v.1.15,2013-07-09 22:55:00,
2013-07-09 18:00:00,92.8,74.8,29.85,West,271,8.0,8.0,56,0.00,,,0.02,Wunderground v.1.15,2013-07-09 23:00:00,
2013-07-09 18:06:00,92.8,74.8,29.85,West,272,7.0,9.0,56,0.00,,,0.02,Wunderground v.1.15,2013-07-09 23:06:00,
2013-07-09 18:11:00,92.7,74.2,29.85,West,273,8.0,9.0,55,0.00,,,0.02,Wunderground v.1.15,2013-07-09 23:11:00,
2013-07-09 18:17:00,92.5,74.0,29.85,West,273,9.0,11.0,55,0.00,,,0.02,Wunderground v.1.15,2013-07-09 23:17:00,
2013-07-09 18:22:00,92.3,74.9,29.85,West,279,8.0,9.0,57,0.00,,,0.02,Wunderground v.1.15,2013-07-09 23:22:00,
2013-07-09 18:28:00,92.2,75.8,29.84,West,268,7.0,9.0,59,0.00,,,0.02,Wunderground v.1.15,2013-07-09 23:28:00,
2013-07-09 18:33:00,92.1,75.2,29.85,West,275,7.0,11.0,58,0.00,,,0.02,Wunderground v.1.15,2013-07-09 23:33:00,
2013-07-09 18:39:00,91.9,75.0,29.84,West,281,8.0,11.0,58,0.00,,,0.02,Wunderground v.1.15,2013-07-09 23:39:00,
2013-07-09 18:44:00,91.7,74.8,29.84,WNW,284,8.0,10.0,58,0.00,,,0.02,Wunderground v.1.15,2013-07-09 23:44:00,
2013-07-09 18:50:00,91.5,74.6,29.84,West,265,8.0,8.0,58,0.00,,,0.02,Wunderground v.1.15,2013-07-09 23:50:00,
2013-07-09 18:55:00,91.3,74.4,29.84,West,279,8.0,11.0,58,0.00,,,0.02,Wunderground v.1.15,2013-07-09 23:55:00,
2013-07-09 19:01:00,91.1,74.3,29.84,West,275,7.0,9.0,58,0.00,,,0.02,Wunderground v.1.15,2013-07-10 00:01:00,
2013-07-09 19:06:00,91.0,74.2,29.84,NW,306,7.0,9.0,58,0.00,,,0.02,Wunderground v.1.15,2013-07-10 00:06:00,
2013-07-09 19:12:00,90.6,74.8,29.84,WSW,251,6.0,9.0,60,0.00,,,0.02,Wunderground v.1.15,2013-07-10 00:12:00,
2013-07-09 19:17:00,90.4,74.6,29.84,West,269,5.0,9.0,60,0.00,,,0.02,Wunderground v.1.15,2013-07-10 00:17:00,
2013-07-09 19:23:00,90.1,74.8,29.84,WNW,284,4.0,9.0,61,0.00,,,0.02,Wunderground v.1.15,2013-07-10 00:23:00,
2013-07-09 19:28:00,89.9,74.6,29.84,West,279,4.0,9.0,61,0.00,,,0.02,Wunderground v.1.15,2013-07-10 00:28:00,
2013-07-09 19:34:00,89.7,74.9,29.84,West,265,4.0,9.0,62,0.00,,,0.02,Wunderground v.1.15,2013-07-10 00:34:00,
2013-07-09 19:39:00,89.4,74.7,29.84,West,272,4.0,9.0,62,0.00,,,0.02,Wunderground v.1.15,2013-07-10 00:39:00,
2013-07-09 19:54:00,88.6,74.9,29.84,WSW,256,5.0,9.0,64,0.00,,,0.02,Wunderground v.1.15,2013-07-10 00:54:00,
2013-07-09 20:00:00,88.2,74.5,29.83,WSW,256,5.0,9.0,64,0.00,,,0.02,Wunderground v.1.15,2013-07-10 01:00:00,
2013-07-09 20:06:00,87.9,74.7,29.83,WSW,256,4.0,9.0,65,0.00,,,0.02,Wunderground v.1.15,2013-07-10 01:06:00,
2013-07-09 20:11:00,87.6,74.4,29.84,WSW,256,2.0,9.0,65,0.00,,,0.02,Wunderground v.1.15,2013-07-10 01:11:00,
2013-07-09 20:29:00,86.1,75.2,29.84,WSW,256,0.0,9.0,70,0.00,,,0.02,Wunderground v.1.15,2013-07-10 01:29:00,
2013-07-09 20:34:00,85.6,75.1,29.84,WSW,256,0.0,9.0,71,0.00,,,0.02,Wunderground v.1.15,2013-07-10 01:34:00,
2013-07-09 20:40:00,85.2,74.7,29.84,WSW,256,0.0,9.0,71,0.00,,,0.02,Wunderground v.1.15,2013-07-10 01:40:00,
2013-07-09 20:45:00,84.9,75.3,29.84,WSW,256,0.0,9.0,73,0.00,,,0.02,Wunderground v.1.15,2013-07-10 01:45:00,
2013-07-09 20:51:00,84.6,75.4,29.84,WSW,256,0.0,9.0,74,0.00,,,0.02,Wunderground v.1.15,2013-07-10 01:51:00,
2013-07-09 20:56:00,84.3,75.5,29.85,WSW,256,0.0,9.0,75,0.00,,,0.02,Wunderground v.1.15,2013-07-10 01:56:00,
2013-07-09 21:02:00,84.0,75.2,29.84,WSW,256,0.0,9.0,75,0.00,,,0.02,Wunderground v.1.15,2013-07-10 02:02:00,
2013-07-09 21:07:00,84.0,75.2,29.85,WSW,256,0.0,9.0,75,0.00,,,0.02,Wunderground v.1.15,2013-07-10 02:07:00,
2013-07-09 21:13:00,84.0,75.2,29.85,WSW,256,0.0,9.0,75,0.00,,,0.02,Wunderground v.1.15,2013-07-10 02:13:00,
2013-07-09 21:18:00,83.9,75.1,29.85,WSW,256,0.0,9.0,75,0.00,,,0.02,Wunderground v.1.15,2013-07-10 02:18:00,
2013-07-09 21:24:00,83.7,75.3,29.85,WSW,256,0.0,9.0,76,0.00,,,0.02,Wunderground v.1.15,2013-07-10 02:24:00,
2013-07-09 21:29:00,83.4,75.0,29.85,WSW,256,0.0,9.0,76,0.00,,,0.02,Wunderground v.1.15,2013-07-10 02:29:00,
2013-07-09 21:35:00,83.2,74.8,29.85,WSW,256,0.0,9.0,76,0.00,,,0.02,Wunderground v.1.15,2013-07-10 02:35:00,
2013-07-09 21:40:00,82.9,74.9,29.85,WSW,256,0.0,9.0,77,0.00,,,0.02,Wunderground v.1.15,2013-07-10 02:40:00,
2013-07-09 21:46:00,82.6,75.0,29.85,WSW,256,0.0,9.0,78,0.00,,,0.02,Wunderground v.1.15,2013-07-10 02:46:00,
2013-07-09 21:51:00,82.4,74.8,29.85,WSW,256,0.0,9.0,78,0.00,,,0.02,Wunderground v.1.15,2013-07-10 02:51:00,
2013-07-09 21:57:00,82.5,74.9,29.86,WSW,256,1.0,9.0,78,0.00,,,0.02,Wunderground v.1.15,2013-07-10 02:57:00,
2013-07-09 22:02:00,82.4,74.8,29.86,WSW,256,1.0,9.0,78,0.00,,,0.02,Wunderground v.1.15,2013-07-10 03:02:00,
2013-07-09 22:08:00,82.3,74.4,29.86,WSW,256,0.0,9.0,77,0.00,,,0.02,Wunderground v.1.15,2013-07-10 03:08:00,
2013-07-09 22:13:00,82.6,74.3,29.86,WSW,256,2.0,9.0,76,0.00,,,0.02,Wunderground v.1.15,2013-07-10 03:13:00,
2013-07-09 22:19:00,82.9,74.2,29.86,WSW,256,2.0,9.0,75,0.00,,,0.02,Wunderground v.1.15,2013-07-10 03:19:00,
2013-07-09 22:24:00,83.1,74.4,29.86,WSW,256,2.0,9.0,75,0.00,,,0.02,Wunderground v.1.15,2013-07-10 03:24:00,
2013-07-09 22:30:00,83.1,73.9,29.86,WSW,256,2.0,9.0,74,0.00,,,0.02,Wunderground v.1.15,2013-07-10 03:30:00,
2013-07-09 22:36:00,83.1,73.9,29.86,WSW,256,3.0,9.0,74,0.00,,,0.02,Wunderground v.1.15,2013-07-10 03:36:00,
2013-07-09 22:42:00,83.3,73.3,29.86,WSW,256,3.0,9.0,72,0.00,,,0.02,Wunderground v.1.15,2013-07-10 03:42:00,
2013-07-09 22:47:00,83.6,73.6,29.86,West,267,4.0,9.0,72,0.00,,,0.02,Wunderground v.1.15,2013-07-10 03:47:00,
2013-07-09 22:53:00,83.8,73.4,29.86,West,276,5.0,9.0,71,0.00,,,0.02,Wunderground v.1.15,2013-07-10 03:53:00,
2013-07-09 23:01:00,84.1,73.3,29.86,WSW,254,4.0,9.0,70,0.00,,,0.02,Wunderground v.1.15,2013-07-10 04:01:00,
2013-07-09 23:02:00,84.1,73.3,29.86,WSW,254,4.0,9.0,70,0.00,,,0.02,Wunderground v.1.15,2013-07-10 04:02:00,
2013-07-09 23:03:00,84.1,73.3,29.86,WSW,254,4.0,9.0,70,0.00,,,0.02,Wunderground v.1.15,2013-07-10 04:03:00,
2013-07-09 23:09:00,83.9,73.5,29.86,WSW,254,3.0,9.0,71,0.00,,,0.02,Wunderground v.1.15,2013-07-10 04:09:00,
2013-07-09 23:12:00,83.8,73.4,29.86,WSW,254,2.0,9.0,71,0.00,,,0.02,Wunderground v.1.15,2013-07-10 04:12:00,
2013-07-09 23:23:00,83.6,73.2,29.86,WSW,254,3.0,9.0,71,0.00,,,0.02,Wunderground v.1.15,2013-07-10 04:23:00,
2013-07-09 23:29:00,83.6,73.2,29.86,WSW,254,4.0,9.0,71,0.00,,,0.02,Wunderground v.1.15,2013-07-10 04:29:00,
2013-07-09 23:35:00,83.6,73.2,29.86,WSW,254,3.0,9.0,71,0.00,,,0.02,Wunderground v.1.15,2013-07-10 04:35:00,
2013-07-09 23:41:00,83.6,73.2,29.86,WSW,250,3.0,5.0,71,0.00,,,0.02,Wunderground v.1.15,2013-07-10 04:41:00,
2013-07-09 23:47:00,83.4,73.4,29.86,WSW,249,3.0,9.0,72,0.00,,,0.02,Wunderground v.1.15,2013-07-10 04:47:00,
2013-07-09 23:52:00,83.3,73.3,29.86,WSW,249,3.0,9.0,72,0.00,,,0.02,Wunderground v.1.15,2013-07-10 04:52:00,
2013-07-09 23:57:00,83.2,73.2,29.86,West,259,3.0,9.0,72,0.00,,,0.02,Wunderground v.1.15,2013-07-10 04:57:00,